TimeEDT,TemperatureF,Dew PointF,Humidity,Sea Level PressureIn,VisibilityMPH,Wind Direction,Wind SpeedMPH,Gust SpeedMPH,PrecipitationIn,Events,Conditions,WindDirDegrees,DateUTC
12:15 AM,66.2,66.2,100,30.01,10.0,Calm,Calm,-,N/A,,Clear,0,2013-05-01 04:15:00
12:35 AM,66.2,66.2,100,30.01,10.0,Calm,Calm,-,N/A,,Clear,0,2013-05-01 04:35:00
12:55 AM,64.4,64.4,100,30.01,10.0,Calm,Calm,-,N/A,,Clear,0,2013-05-01 04:55:00
1:15 AM,64.4,64.4,100,30.00,10.0,ENE,4.6,-,N/A,,Clear,70,2013-05-01 05:15:00
1:35 AM,64.4,64.4,100,30.00,10.0,ENE,4.6,-,N/A,,Clear,70,2013-05-01 05:35:00
1:55 AM,64.4,64.4,100,30.00,10.0,Calm,Calm,-,N/A,,Clear,0,2013-05-01 05:55:00
2:15 AM,64.4,64.4,100,29.99,10.0,NE,3.5,-,N/A,,Clear,50,2013-05-01 06:15:00
2:35 AM,64.4,64.4,100,29.98,10.0,Calm,Calm,-,N/A,,Clear,0,2013-05-01 06:35:00
2:55 AM,64.4,64.4,100,29.97,10.0,NE,4.6,-,N/A,,Mostly Cloudy,50,2013-05-01 06:55:00
3:15 AM,64.4,64.4,100,29.97,1.8,ENE,4.6,-,N/A,,Overcast,70,2013-05-01 07:15:00
3:35 AM,66.2,66.2,100,29.97,1.0,East,3.5,-,N/A,,Overcast,90,2013-05-01 07:35:00
3:55 AM,66.2,66.2,100,29.97,1.5,East,3.5,-,N/A,,Overcast,90,2013-05-01 07:55:00
4:15 AM,66.2,66.2,100,29.97,2.5,ENE,3.5,-,N/A,,Overcast,70,2013-05-01 08:15:00
4:35 AM,66.2,66.2,100,29.97,4.0,ENE,3.5,-,N/A,,Overcast,70,2013-05-01 08:35:00
4:55 AM,66.2,66.2,100,29.97,5.0,ENE,3.5,-,N/A,,Mostly Cloudy,60,2013-05-01 08:55:00
5:15 AM,66.2,66.2,100,29.97,5.0,ENE,4.6,-,N/A,,Scattered Clouds,60,2013-05-01 09:15:00
5:35 AM,66.2,66.2,100,29.97,5.0,ENE,4.6,-,N/A,,Clear,70,2013-05-01 09:35:00
5:55 AM,68.0,68.0,100,29.97,5.0,East,6.9,-,N/A,,Clear,80,2013-05-01 09:55:00
6:15 AM,68.0,68.0,100,29.97,7.0,ENE,5.8,-,N/A,,Clear,70,2013-05-01 10:15:00
6:35 AM,68.0,68.0,100,29.98,7.0,East,4.6,-,N/A,,Clear,80,2013-05-01 10:35:00
7:15 AM,68.0,68.0,100,30.00,7.0,East,3.5,-,N/A,,Clear,90,2013-05-01 11:15:00
7:35 AM,68.0,68.0,100,30.00,10.0,East,5.8,-,N/A,,Clear,100,2013-05-01 11:35:00
8:15 AM,68.0,68.0,100,30.01,7.0,East,5.8,-,N/A,,Overcast,100,2013-05-01 12:15:00
8:35 AM,68.0,68.0,100,30.01,10.0,East,3.5,-,N/A,,Mostly Cloudy,90,2013-05-01 12:35:00
8:55 AM,69.8,69.8,100,30.01,10.0,East,3.5,-,N/A,,Scattered Clouds,80,2013-05-01 12:55:00
9:15 AM,69.8,69.8,100,30.02,10.0,ENE,3.5,-,N/A,,Scattered Clouds,70,2013-05-01 13:15:00
9:35 AM,69.8,69.8,100,30.02,10.0,East,3.5,-,N/A,,Scattered Clouds,90,2013-05-01 13:35:00
9:55 AM,69.8,69.8,100,30.02,10.0,East,3.5,-,N/A,,Scattered Clouds,90,2013-05-01 13:55:00
10:15 AM,69.8,69.8,100,30.03,10.0,East,3.5,-,N/A,,Clear,90,2013-05-01 14:15:00
10:35 AM,71.6,71.6,100,30.04,10.0,East,3.5,-,N/A,,Clear,90,2013-05-01 14:35:00
10:55 AM,71.6,71.6,100,30.05,10.0,East,5.8,-,N/A,,Clear,100,2013-05-01 14:55:00
11:15 AM,71.6,71.6,100,30.05,10.0,East,5.8,-,N/A,,Mostly Cloudy,80,2013-05-01 15:15:00
11:35 AM,71.6,71.6,100,30.05,10.0,East,5.8,-,N/A,,Overcast,100,2013-05-01 15:35:00
12:15 PM,73.4,73.4,100,30.04,10.0,East,8.1,-,N/A,,Overcast,90,2013-05-01 16:15:00
12:35 PM,73.4,73.4,100,30.03,10.0,ENE,8.1,-,N/A,,Overcast,70,2013-05-01 16:35:00
1:15 PM,75.2,73.4,94,30.02,10.0,East,9.2,-,N/A,,Light Drizzle,90,2013-05-01 17:15:00
1:35 PM,75.2,71.6,89,30.02,10.0,East,6.9,-,N/A,,Mostly Cloudy,80,2013-05-01 17:35:00
1:55 PM,75.2,71.6,89,30.01,10.0,East,9.2,-,N/A,,Overcast,90,2013-05-01 17:55:00
2:15 PM,75.2,69.8,83,30.00,10.0,East,8.1,-,N/A,,Mostly Cloudy,80,2013-05-01 18:15:00
2:35 PM,75.2,68.0,78,30.00,10.0,East,8.1,-,N/A,,Scattered Clouds,90,2013-05-01 18:35:00
2:55 PM,75.2,66.2,73,29.99,10.0,ENE,8.1,-,N/A,,Clear,70,2013-05-01 18:55:00
3:15 PM,73.4,66.2,78,29.99,10.0,East,6.9,-,N/A,,Scattered Clouds,80,2013-05-01 19:15:00
3:35 PM,73.4,68.0,83,29.99,10.0,East,8.1,-,N/A,Rain,Light Rain,90,2013-05-01 19:35:00
3:55 PM,73.4,68.0,83,29.98,10.0,East,5.8,-,N/A,,Mostly Cloudy,80,2013-05-01 19:55:00
4:15 PM,73.4,68.0,83,29.97,10.0,ENE,6.9,-,N/A,,Light Drizzle,70,2013-05-01 20:15:00
4:35 PM,73.4,68.0,83,29.98,10.0,East,3.5,-,N/A,,Light Drizzle,90,2013-05-01 20:35:00
4:55 PM,71.6,69.8,94,29.99,10.0,East,4.6,-,N/A,Rain,Light Rain,100,2013-05-01 20:55:00
5:15 PM,71.6,71.6,100,29.98,10.0,East,5.8,-,0.02,Rain,Light Rain,90,2013-05-01 21:15:00
5:35 PM,71.6,71.6,100,29.98,10.0,ENE,10.4,-,0.04,Rain,Light Rain,70,2013-05-01 21:35:00
5:55 PM,69.8,69.8,100,29.99,10.0,ESE,6.9,-,0.06,Rain,Light Rain,110,2013-05-01 21:55:00
6:15 PM,69.8,69.8,100,29.99,10.0,ESE,6.9,-,0.02,Rain,Light Rain,110,2013-05-01 22:15:00
6:35 PM,68.0,68.0,100,30.00,10.0,SE,11.5,-,0.04,Rain,Light Rain,140,2013-05-01 22:35:00
6:55 PM,68.0,68.0,100,29.99,10.0,East,6.9,-,0.06,Rain,Rain,90,2013-05-01 22:55:00
7:15 PM,66.2,66.2,100,29.98,10.0,East,5.8,-,0.01,Rain,Light Rain,90,2013-05-01 23:15:00
7:35 PM,66.2,66.2,100,29.98,10.0,East,5.8,-,0.02,Rain,Rain,100,2013-05-01 23:35:00
7:55 PM,66.2,66.2,100,29.98,10.0,East,5.8,-,0.03,,Drizzle,90,2013-05-01 23:55:00
8:15 PM,66.2,66.2,100,30.00,10.0,East,3.5,-,N/A,,Light Drizzle,100,2013-05-02 00:15:00
8:35 PM,66.2,66.2,100,30.00,10.0,Calm,Calm,-,N/A,,Drizzle,0,2013-05-02 00:35:00
8:55 PM,66.2,66.2,100,30.00,10.0,Calm,Calm,-,0.01,,Drizzle,0,2013-05-02 00:55:00
9:15 PM,66.2,66.2,100,30.00,10.0,Calm,Calm,-,N/A,Rain,Rain,0,2013-05-02 01:15:00
9:35 PM,66.2,66.2,100,30.00,10.0,East,3.5,-,0.02,Rain,Light Rain,80,2013-05-02 01:35:00
9:55 PM,68.0,68.0,100,30.00,7.0,Calm,Calm,-,0.03,Rain,Light Rain,0,2013-05-02 01:55:00
10:35 PM,68.0,68.0,100,30.00,7.0,NNE,3.5,-,N/A,,Light Drizzle,30,2013-05-02 02:35:00
10:55 PM,68.0,68.0,100,30.00,7.0,NE,3.5,-,N/A,,Mostly Cloudy,50,2013-05-02 02:55:00
11:15 PM,68.0,68.0,100,30.00,7.0,NNE,3.5,-,N/A,,Mostly Cloudy,30,2013-05-02 03:15:00
11:35 PM,66.2,66.2,100,30.00,10.0,ENE,5.8,-,N/A,,Scattered Clouds,60,2013-05-02 03:35:00
11:55 PM,66.2,66.2,100,30.00,10.0,NE,4.6,-,N/A,,Mostly Cloudy,40,2013-05-02 03:55:00